TimeAKDT,TemperatureF,Dew PointF,Humidity,Sea Level PressureIn,VisibilityMPH,Wind Direction,Wind SpeedMPH,Gust SpeedMPH,PrecipitationIn,Events,Conditions,WindDirDegrees,DateUTC
12:16 AM,30.2,28.4,93,29.97,0.5,NNW,8.1,-,N/A,,Overcast,340,2013-05-26 08:16:00
12:36 AM,30.2,28.4,93,29.97,0.5,NNW,6.9,-,N/A,,Overcast,340,2013-05-26 08:36:00
12:56 AM,30.2,28.4,93,29.97,0.8,NNW,9.2,-,N/A,,Overcast,330,2013-05-26 08:56:00
1:16 AM,30.2,28.4,93,29.97,0.5,NNW,9.2,-,N/A,,Overcast,340,2013-05-26 09:16:00
1:36 AM,30.2,28.4,93,29.97,1.5,NNW,8.1,-,N/A,,Overcast,330,2013-05-26 09:36:00
2:16 AM,30.2,28.4,93,29.97,5.0,NNW,9.2,-,N/A,,Overcast,340,2013-05-26 10:16:00
2:36 AM,30.2,28.4,93,29.97,1.0,NNW,10.4,-,N/A,,Overcast,330,2013-05-26 10:36:00
2:56 AM,28.4,28.4,100,29.96,0.5,NNW,10.4,-,N/A,,Overcast,330,2013-05-26 10:56:00
3:16 AM,28.4,28.4,100,29.96,0.5,NNW,10.4,-,N/A,,Overcast,340,2013-05-26 11:16:00
3:36 AM,28.4,26.6,93,29.96,1.0,NNW,10.4,-,N/A,,Overcast,340,2013-05-26 11:36:00
3:56 AM,28.4,26.6,93,29.95,1.5,NNW,9.2,-,N/A,,Overcast,340,2013-05-26 11:56:00
4:16 AM,28.4,26.6,93,29.96,9.0,NNW,8.1,-,N/A,,Overcast,340,2013-05-26 12:16:00
4:56 AM,28.4,26.6,93,29.95,10.0,North,8.1,-,N/A,,Overcast,350,2013-05-26 12:56:00
5:16 AM,28.4,28.4,100,29.95,10.0,NNW,9.2,-,N/A,,Overcast,340,2013-05-26 13:16:00
5:36 AM,28.4,26.6,93,29.95,10.0,NNW,9.2,-,N/A,,Overcast,340,2013-05-26 13:36:00
5:56 AM,28.4,28.4,100,29.95,10.0,NNW,9.2,-,N/A,,Overcast,340,2013-05-26 13:56:00
6:16 AM,28.4,28.4,100,29.95,10.0,NNW,9.2,-,N/A,,Overcast,330,2013-05-26 14:16:00
6:36 AM,28.4,28.4,100,29.95,6.0,NNW,10.4,-,N/A,,Overcast,330,2013-05-26 14:36:00
6:56 AM,28.4,26.6,93,29.94,1.2,NNW,11.5,-,N/A,,Overcast,340,2013-05-26 14:56:00
7:16 AM,28.4,28.4,100,29.95,0.8,NNW,10.4,-,N/A,,Overcast,330,2013-05-26 15:16:00
7:36 AM,28.4,26.6,93,29.95,0.8,NNW,10.4,-,N/A,,Overcast,340,2013-05-26 15:36:00
7:56 AM,28.4,26.6,93,29.95,0.8,NNW,10.4,-,N/A,,Overcast,340,2013-05-26 15:56:00
8:16 AM,28.4,26.6,93,29.95,1.0,NNW,11.5,-,N/A,,Overcast,340,2013-05-26 16:16:00
8:36 AM,28.4,26.6,93,29.95,2.0,NNW,10.4,-,N/A,,Overcast,340,2013-05-26 16:36:00
8:56 AM,30.2,28.4,93,29.95,2.0,NNW,9.2,-,N/A,,Overcast,340,2013-05-26 16:56:00
9:16 AM,28.4,28.4,100,29.96,0.5,NNW,11.5,-,N/A,,Overcast,340,2013-05-26 17:16:00
9:36 AM,28.4,28.4,100,29.96,0.5,NNW,11.5,-,N/A,,Overcast,340,2013-05-26 17:36:00
9:56 AM,30.2,28.4,93,29.96,0.8,NNW,13.8,-,N/A,,Overcast,340,2013-05-26 17:56:00
10:16 AM,30.2,28.4,93,29.96,0.8,NNW,12.7,-,N/A,,Overcast,340,2013-05-26 18:16:00
10:36 AM,30.2,28.4,93,29.96,1.0,North,10.4,-,N/A,,Overcast,350,2013-05-26 18:36:00
10:56 AM,28.4,28.4,100,29.96,0.8,North,10.4,-,N/A,,Overcast,350,2013-05-26 18:56:00
11:16 AM,28.4,28.4,100,29.96,0.5,North,10.4,-,N/A,,Overcast,360,2013-05-26 19:16:00
11:36 AM,28.4,28.4,100,29.96,0.2,North,12.7,-,N/A,,Overcast,360,2013-05-26 19:36:00
11:56 AM,30.2,28.4,93,29.97,0.2,NNW,12.7,-,N/A,,Overcast,340,2013-05-26 19:56:00
12:16 PM,30.2,28.4,93,29.97,0.2,NNW,15.0,-,N/A,,Overcast,340,2013-05-26 20:16:00
12:56 PM,30.2,28.4,93,29.97,0.2,NNW,13.8,-,N/A,,Overcast,340,2013-05-26 20:56:00
1:16 PM,30.2,28.4,93,29.98,0.5,NNW,12.7,-,N/A,,Overcast,340,2013-05-26 21:16:00
1:36 PM,30.2,28.4,93,29.98,0.2,NNW,12.7,-,N/A,,Overcast,340,2013-05-26 21:36:00
1:56 PM,30.2,28.4,93,29.98,0.2,North,12.7,-,N/A,,Overcast,350,2013-05-26 21:56:00
2:16 PM,30.2,28.4,93,29.98,0.2,North,10.4,-,N/A,,Overcast,350,2013-05-26 22:16:00
2:36 PM,30.2,28.4,93,29.98,0.5,North,11.5,-,N/A,,Overcast,360,2013-05-26 22:36:00
2:56 PM,30.2,28.4,93,29.98,0.8,North,12.7,-,N/A,,Overcast,350,2013-05-26 22:56:00
3:16 PM,30.2,28.4,93,29.98,1.0,North,11.5,-,N/A,,Overcast,360,2013-05-26 23:16:00
3:36 PM,30.2,28.4,93,29.99,0.8,North,12.7,-,N/A,,Overcast,350,2013-05-26 23:36:00
3:56 PM,30.2,30.2,100,29.98,0.8,North,11.5,-,N/A,,Overcast,350,2013-05-26 23:56:00
4:16 PM,30.2,28.4,93,29.98,0.8,North,12.7,-,N/A,,Overcast,360,2013-05-27 00:16:00
4:36 PM,30.2,30.2,100,29.98,1.2,North,13.8,-,N/A,,Overcast,360,2013-05-27 00:36:00
4:56 PM,30.2,28.4,93,29.98,0.5,North,13.8,-,N/A,,Overcast,350,2013-05-27 00:56:00
5:16 PM,30.2,28.4,93,29.98,0.5,North,15.0,-,N/A,,Overcast,350,2013-05-27 01:16:00
5:36 PM,30.2,28.4,93,29.98,0.5,North,15.0,-,N/A,,Overcast,350,2013-05-27 01:36:00
5:56 PM,30.2,28.4,93,29.98,0.8,North,15.0,-,N/A,,Overcast,350,2013-05-27 01:56:00
6:16 PM,30.2,28.4,93,29.98,0.5,North,15.0,-,N/A,,Overcast,350,2013-05-27 02:16:00
6:36 PM,30.2,28.4,93,29.98,0.5,NNW,16.1,-,N/A,,Overcast,340,2013-05-27 02:36:00
6:56 PM,30.2,28.4,93,29.98,0.2,North,15.0,-,N/A,,Overcast,350,2013-05-27 02:56:00
7:16 PM,30.2,28.4,93,29.98,0.2,North,12.7,-,N/A,,Overcast,350,2013-05-27 03:16:00
7:36 PM,30.2,28.4,93,29.98,0.5,NNW,15.0,-,N/A,,Overcast,340,2013-05-27 03:36:00
7:56 PM,30.2,30.2,100,29.98,0.2,North,12.7,-,N/A,,Overcast,350,2013-05-27 03:56:00
8:16 PM,30.2,28.4,93,29.97,0.2,North,13.8,-,N/A,,Overcast,350,2013-05-27 04:16:00
8:36 PM,30.2,28.4,93,29.98,0.2,North,12.7,-,N/A,,Overcast,350,2013-05-27 04:36:00
8:56 PM,30.2,28.4,93,29.98,0.2,North,13.8,-,N/A,,Overcast,350,2013-05-27 04:56:00
9:16 PM,30.2,30.2,100,29.98,0.2,NNW,11.5,-,N/A,,Overcast,340,2013-05-27 05:16:00
9:36 PM,30.2,30.2,100,29.98,0.2,NNW,13.8,-,N/A,,Overcast,340,2013-05-27 05:36:00
9:56 PM,30.2,30.2,100,29.98,0.2,NNW,13.8,-,N/A,,Overcast,340,2013-05-27 05:56:00
10:16 PM,30.2,30.2,100,29.98,0.2,NNW,12.7,-,N/A,,Overcast,340,2013-05-27 06:16:00
10:36 PM,32.0,30.2,93,29.98,0.5,NNW,11.5,-,N/A,,Overcast,340,2013-05-27 06:36:00
10:56 PM,32.0,30.2,93,29.98,1.5,North,11.5,-,N/A,,Overcast,350,2013-05-27 06:56:00
11:16 PM,30.2,30.2,100,29.98,2.0,North,10.4,-,N/A,,Overcast,350,2013-05-27 07:16:00
11:56 PM,30.2,30.2,100,29.98,6.0,NNW,11.5,-,N/A,,Overcast,340,2013-05-27 07:56:00